Weather History for Bilbao, Spain

Change the Weather History Date:

Sunday, August 11, 2013

  Actual Average Record
Temperature  
Mean Temperature 73 °F -  
Max Temperature 84 °F 77 °F 93 °F (2004)
Min Temperature 62 °F 60 °F 53 °F (2001)
Cooling Degree Days 8    
Growing Degree Days 23 (Base 50)    
Moisture  
Dew Point 64 °F    
Average Humidity 73    
Maximum Humidity 94    
Minimum Humidity 55    
Precipitation  
Precipitation 0.00 in - - ()
Sea Level Pressure  
Sea Level Pressure 30.11 in    
Wind  
Wind Speed 3 mph ()    
Max Wind Speed 13 mph    
Max Gust Speed -    
Visibility 6.2 miles    
Events      
Averages and records for this station are not official NWS values.
T = Trace of Precipitation, MM = Missing Value Source: Averaged Metar Reports

Daily Weather History Graph

Daily Weather History Graph

Search for Another Location

Airport:

Trip Planner

Search our weather history database for the weather conditions in past years. The results will help you decide how hot, cold, wet, or windy it might be!

Date:

Astronomy

Aug. 11, 2013 Rise Set
Actual Time 7:12 AM CEST 9:20 PM CEST
Civil Twilight 6:41 AM CEST 9:51 PM CEST
Nautical Twilight 6:02 AM CEST 10:29 PM CEST
Astronomical Twilight 5:20 AM CEST 11:11 PM CEST
Moon 11:55 AM CEST (8/11) 11:16 PM CEST (8/11)
Length of Visible Light 15h 10m
Length of Day
14h 07m
Waxing Crescent, 19% of the Moon is Illuminated
Aug 11
Waxing Crescent
Aug 14
First Quarter
Aug 21
Full
Aug 28
Last Quarter
Sep 5
New

Hourly Weather History & Observations

Time (CEST) Temp. Heat Index Dew Point Humidity Pressure Visibility Wind Dir Wind Speed Gust Speed Precip Events Conditions
12:00 AM 66.2 °F - 60.8 °F 83% 30.21 in 6.2 mi Variable 1.2 mph - N/A   Partly Cloudy
5:00 AM 62.6 °F - 60.8 °F 94% 30.18 in 6.2 mi Variable 1.2 mph - N/A   Scattered Clouds
5:30 AM 62.6 °F - 60.8 °F 94% 30.18 in 6.2 mi Calm Calm - N/A   Mostly Cloudy
6:00 AM 62.6 °F - 60.8 °F 94% 30.15 in 6.2 mi Calm Calm - N/A   Mostly Cloudy
6:30 AM 62.6 °F - 60.8 °F 94% 30.15 in 6.2 mi Calm Calm - N/A   Mostly Cloudy
7:00 AM 62.6 °F - 60.8 °F 94% 30.15 in 6.2 mi Calm Calm - N/A   Mostly Cloudy
7:30 AM 62.6 °F - 60.8 °F 94% 30.15 in 6.2 mi Variable 1.2 mph - N/A   Scattered Clouds
8:00 AM 62.6 °F - 60.8 °F 94% 30.15 in 6.2 mi Variable 1.2 mph - N/A   Partly Cloudy
8:30 AM 64.4 °F - 60.8 °F 88% 30.15 in 6.2 mi Variable 1.2 mph - N/A   Partly Cloudy
9:00 AM 66.2 °F - 62.6 °F 88% 30.15 in 6.2 mi Variable 1.2 mph - N/A   Partly Cloudy
9:30 AM 69.8 °F - 62.6 °F 78% 30.15 in 6.2 mi Variable 1.2 mph - N/A   Partly Cloudy
10:00 AM 69.8 °F - 62.6 °F 78% 30.15 in 6.2 mi Calm Calm - N/A   Partly Cloudy
10:30 AM 73.4 °F - 62.6 °F 69% 30.15 in 6.2 mi Calm Calm - N/A   Partly Cloudy
11:00 AM 75.2 °F - 64.4 °F 69% 30.15 in 6.2 mi Variable 1.2 mph - N/A   Partly Cloudy
11:30 AM 77.0 °F - 64.4 °F 65% 30.15 in 6.2 mi Variable 2.3 mph - N/A   Partly Cloudy
12:00 PM 78.8 °F - 64.4 °F 61% 30.15 in 6.2 mi Variable 1.2 mph - N/A   Partly Cloudy
12:30 PM 80.6 °F 82.3 °F 64.4 °F 58% 30.12 in 6.2 mi Variable 2.3 mph - N/A   Partly Cloudy
1:00 PM 80.6 °F 82.3 °F 64.4 °F 58% 30.12 in 6.2 mi NE 6.9 mph - N/A   Partly Cloudy
1:30 PM 82.4 °F 84.6 °F 66.2 °F 58% 30.12 in 6.2 mi ENE 5.8 mph - N/A   Partly Cloudy
2:00 PM 82.4 °F 84.6 °F 66.2 °F 58% 30.09 in 6.2 mi NE 5.8 mph - N/A   Partly Cloudy
2:30 PM 84.2 °F 86.6 °F 66.2 °F 55% 30.09 in 6.2 mi Variable 5.8 mph - N/A   Partly Cloudy
3:00 PM 84.2 °F 86.6 °F 66.2 °F 55% 30.09 in 6.2 mi NNE 11.5 mph - N/A   Partly Cloudy
3:30 PM 82.4 °F 84.6 °F 66.2 °F 58% 30.09 in 6.2 mi ENE 10.4 mph - N/A   Partly Cloudy
4:00 PM 82.4 °F 84.6 °F 66.2 °F 58% 30.06 in 6.2 mi NNE 8.1 mph - N/A   Partly Cloudy
4:30 PM 82.4 °F 84.6 °F 66.2 °F 58% 30.06 in 6.2 mi NE 8.1 mph - N/A   Partly Cloudy
5:00 PM 82.4 °F 84.6 °F 66.2 °F 58% 30.06 in 6.2 mi North 6.9 mph - N/A   Partly Cloudy
5:30 PM 82.4 °F 84.6 °F 66.2 °F 58% 30.06 in 6.2 mi NNE 4.6 mph - N/A   Partly Cloudy
6:00 PM 82.4 °F 84.6 °F 66.2 °F 58% 30.06 in 6.2 mi NNW 4.6 mph - N/A   Partly Cloudy
6:30 PM 80.6 °F 82.7 °F 66.2 °F 61% 30.06 in 6.2 mi WNW 12.7 mph - N/A   Partly Cloudy
7:00 PM 78.8 °F - 64.4 °F 61% 30.06 in 6.2 mi WNW 11.5 mph - N/A   Partly Cloudy
7:30 PM 78.8 °F - 66.2 °F 65% 30.04 in 6.2 mi WNW 10.4 mph - N/A   Scattered Clouds
8:00 PM 77.0 °F - 66.2 °F 69% 30.06 in 6.2 mi WNW 9.2 mph - N/A   Scattered Clouds
8:30 PM 75.2 °F - 66.2 °F 73% 30.04 in 6.2 mi WNW 8.1 mph - N/A   Partly Cloudy
9:00 PM 73.4 °F - 66.2 °F 78% 30.04 in 6.2 mi NW 5.8 mph - N/A   Partly Cloudy
9:30 PM 71.6 °F - 66.2 °F 83% 30.06 in 6.2 mi WNW 3.5 mph - N/A   Scattered Clouds
10:00 PM 71.6 °F - 66.2 °F 83% 30.06 in 6.2 mi Variable 2.3 mph - N/A   Scattered Clouds
10:30 PM 71.6 °F - 66.2 °F 83% 30.06 in 6.2 mi Variable 1.2 mph - N/A   Scattered Clouds
11:00 PM 71.6 °F - 66.2 °F 83% 30.06 in 6.2 mi Variable 2.3 mph - N/A   Scattered Clouds
11:30 PM 71.6 °F - 66.2 °F 83% 30.06 in 6.2 mi Variable 1.2 mph - N/A   Scattered Clouds